[[{"header":{"parameterUnit":"m.s-1","parameterCategory":1,"la1":30.2991,"la2":30.254,"lo1":-89.0895,"lo2":-89.0444,"dy":0.0017,"dx":0.0017,"nx":28,"ny":28,"refTime":"2026-02-09T03:00:00:Z","depth":0,"parameterNumber":2,"parameterNumberName":"U-component_of_WINDS"},"data":[0,0,0,0,0,0,0,0,0,0,0,0,0,0,0,0,0,0,0,0,0,0,0,0,0,0,0,0,0,0,0,0,0,0,0,0,0,0,0,0,0,0,0,0,0,0,0,0,0,0,0,0,0,0,0,0,0,0,-0.285,-0.285,0,-0.2786,-0.2785,-0.2785,-0.2751,-0.2751,-0.2751,-0.2751,-0.2686,-0.2684,-0.2682,0,0,0,0,0,0,0,0,0,0,0,0,0,-0.2944,-0.2943,-0.285,-0.285,-0.2849,-0.2786,-0.2785,-0.2784,-0.2751,-0.2751,-0.2751,-0.2751,-0.2686,-0.2684,-0.2682,0,0,0,0,0,0,0,0,0,0,0,0,0,-0.2894,-0.2942,-0.2851,-0.2825,-0.2822,-0.2786,-0.2785,-0.2784,-0.2751,-0.2751,-0.2751,-0.2751,-0.2687,-0.2684,-0.2682,-0.2667,0,0,-0.2674,-0.2673,0,0,0,0,0,0,0,0,-0.2897,-0.2891,-0.2829,-0.2827,-0.2823,-0.2777,-0.2794,-0.2745,-0.2751,-0.2778,-0.2751,-0.2751,-0.2716,-0.2711,-0.2699,-0.2664,-0.2661,-0.2674,-0.2672,-0.2671,-0.267,0,0,0,0,0,0,0,-0.2901,-0.2893,-0.2825,-0.2829,-0.2825,-0.2816,-0.2809,-0.2785,-0.2748,-0.2776,-0.2773,-0.2766,-0.2714,-0.2702,-0.2697,-0.266,-0.2674,-0.2672,-0.267,-0.2669,-0.2609,-0.2609,0,0,0,0,0,0,-0.2908,-0.2896,-0.2827,-0.2823,-0.2861,-0.2815,-0.2807,-0.2792,-0.2748,-0.2742,-0.2766,-0.2765,-0.2706,-0.27,-0.2695,-0.2674,-0.2671,-0.2669,-0.2667,-0.2609,-0.2609,-0.2609,0,0,0,0,0,0,-0.291,-0.2902,-0.283,-0.2859,-0.2849,-0.2813,-0.2797,-0.279,-0.2778,-0.2741,-0.2734,-0.276,-0.2706,-0.2699,-0.2674,-0.2671,-0.2668,-0.2665,-0.2609,-0.2609,-0.2609,-0.2633,0,0,0,0,0,0,-0.2913,-0.2903,-0.2898,-0.2859,-0.2848,-0.281,-0.2796,-0.2789,-0.2773,-0.2771,-0.2734,-0.2727,-0.2705,-0.2678,-0.2672,-0.2668,-0.2663,-0.2609,-0.2609,-0.2609,-0.2632,-0.2634,-0.2635,0,0,0,0,0,-0.2917,-0.2907,-0.2897,-0.2889,-0.284,-0.281,-0.2803,-0.2778,-0.2773,-0.2767,-0.2743,-0.2729,-0.2673,-0.2676,-0.2668,-0.2664,-0.2609,-0.2609,-0.2609,-0.2632,-0.2633,-0.2635,0,0,0,0,0,0,-0.2947,-0.2902,-0.289,-0.2868,-0.2843,-0.2804,-0.2796,-0.2781,-0.2757,-0.2756,-0.2725,-0.2717,-0.2695,-0.2677,-0.2681,-0.2647,-0.264,-0.2638,-0.2659,-0.2661,-0.2662,-0.2667,-0.2661,0,0,0,0,0,-0.2951,-0.293,-0.2892,-0.2876,-0.2864,-0.2832,-0.2818,-0.2801,-0.2774,-0.2763,-0.2738,-0.2712,-0.2688,-0.2674,-0.265,-0.263,-0.2621,-0.2623,-0.2624,-0.2625,-0.2624,-0.2611,-0.2611,-0.2609,-0.2609,-0.2609,0,0,-0.2959,-0.2932,-0.2921,-0.2881,-0.286,-0.2839,-0.2823,-0.2803,-0.2787,-0.276,-0.2735,-0.2715,-0.2685,-0.2662,-0.2651,-0.2646,-0.2623,-0.2625,-0.2626,-0.2624,-0.2611,-0.2611,-0.2611,-0.2608,-0.2608,-0.2609,0,0,-0.2963,-0.294,-0.2924,-0.2903,-0.287,-0.2849,-0.2845,-0.2808,-0.2794,-0.2769,-0.2748,-0.2729,-0.2689,-0.2668,-0.2652,-0.2647,-0.2632,-0.264,-0.2647,-0.2635,-0.2635,-0.2635,-0.2632,-0.2632,-0.2639,-0.2639,-0.2639,0,-0.2977,-0.2945,-0.2918,-0.2897,-0.288,-0.2855,-0.2838,-0.2819,-0.278,-0.2769,-0.2765,-0.2714,-0.2691,-0.2663,-0.2661,-0.265,-0.2644,-0.2644,-0.2637,-0.2637,-0.2636,-0.2634,-0.2633,-0.264,-0.264,-0.264,-0.264,0,-0.2963,-0.2941,-0.2932,-0.2895,-0.2877,-0.2859,-0.2829,-0.2814,-0.2798,-0.2777,-0.2751,-0.2723,-0.2693,-0.2685,-0.267,-0.2654,-0.2652,-0.2643,-0.2635,-0.2638,-0.2635,-0.2634,-0.2642,-0.2641,-0.2641,-0.2641,0,0,-0.2984,-0.2932,-0.2929,-0.2912,-0.2873,-0.2856,-0.2836,-0.2807,-0.2794,-0.2768,-0.2751,-0.2718,-0.2708,-0.269,-0.2672,-0.2661,-0.2658,-0.2653,-0.2652,-0.2654,-0.2639,-0.2646,-0.2645,-0.2648,-0.2648,-0.2648,-0.2641,0,-0.2982,-0.2945,-0.292,-0.2893,-0.2872,-0.2847,-0.283,-0.2804,-0.2784,-0.2764,-0.2741,-0.2718,-0.2708,-0.2697,-0.2685,-0.2661,-0.2654,-0.2661,-0.2631,-0.263,-0.2639,-0.2643,-0.2651,-0.2646,-0.264,-0.2639,-0.2639,0,-0.2975,-0.295,-0.292,-0.2884,-0.2874,-0.2859,-0.2829,-0.281,-0.278,-0.2766,-0.2746,-0.2727,-0.2705,-0.2699,-0.2668,-0.2673,-0.2659,-0.2645,-0.2645,-0.2641,-0.2635,-0.2639,-0.2644,-0.2643,-0.2637,-0.2637,-0.2638,0,-0.2993,-0.2951,-0.2928,-0.2914,-0.2871,-0.286,-0.2842,-0.2812,-0.2796,-0.277,-0.2759,-0.2731,-0.2716,-0.2695,-0.2669,-0.2667,-0.264,-0.2632,-0.2627,-0.2628,-0.2622,-0.2623,-0.2625,-0.2615,-0.2615,-0.2615,-0.2615,0,-0.2993,-0.2976,-0.2935,-0.2921,-0.2901,-0.2872,-0.2853,-0.2832,-0.2806,-0.2787,-0.2764,-0.2747,-0.2714,-0.2693,-0.2672,-0.2649,-0.2642,-0.263,-0.2625,-0.2632,-0.2634,-0.2622,-0.2622,-0.2614,-0.2614,-0.2614,-0.2614,0,-0.3009,-0.2981,-0.2954,-0.2915,-0.2905,-0.2892,-0.2858,-0.2843,-0.2822,-0.2798,-0.2791,-0.2757,-0.2731,-0.2703,-0.2667,-0.2654,-0.2631,-0.2624,-0.2641,-0.2638,-0.2635,-0.2635,-0.2629,-0.2626,-0.2618,-0.2619,-0.2619,0,-0.3011,-0.2997,-0.2956,-0.2942,-0.2924,-0.2901,-0.2884,-0.2854,-0.2838,-0.2803,-0.2792,-0.2764,-0.274,-0.2699,-0.2671,-0.2644,-0.2635,-0.2635,-0.2631,-0.2638,-0.2635,-0.2636,-0.2634,-0.2636,-0.2636,-0.2637,-0.2637,0,-0.3017,-0.3003,-0.2979,-0.295,-0.293,-0.2906,-0.2881,-0.287,-0.2836,-0.2819,-0.2791,-0.2772,-0.2736,-0.2708,-0.2677,-0.2658,-0.2642,-0.2638,-0.2636,-0.2642,-0.2653,-0.2647,-0.2644,-0.2638,-0.2638,-0.2638,-0.2638,-0.2638,-0.3025,-0.3011,-0.298,-0.2954,-0.2932,-0.2909,-0.2893,-0.2869,-0.2845,-0.2813,-0.2797,-0.277,-0.274,-0.2697,-0.2678,-0.2656,-0.2651,-0.2648,-0.2646,-0.2646,-0.2648,-0.2657,-0.265,-0.265,-0.265,-0.265,-0.265,0,-0.3029,-0.3008,-0.2984,-0.2949,-0.2929,-0.2915,-0.2886,-0.287,-0.2846,-0.2819,-0.2796,-0.2764,-0.2737,-0.2707,-0.2678,-0.2666,-0.2658,-0.2659,-0.266,-0.2656,-0.2654,-0.2659,-0.2666,-0.2666,-0.2666,-0.2666,-0.2666,-0.2666,-0.3029,-0.3005,-0.2987,-0.2952,-0.293,-0.2903,-0.2887,-0.2866,-0.2845,-0.281,-0.2787,-0.2768,-0.274,-0.2708,-0.2683,-0.2675,-0.2665,-0.2669,-0.2658,-0.2657,-0.2656,-0.2655,-0.2659,-0.2667,-0.2667,-0.2662,-0.2662,-0.2662]},{"header":{"parameterUnit":"m.s-1","parameterCategory":1,"la1":30.2991,"la2":30.254,"lo1":-89.0895,"lo2":-89.0444,"dy":0.0017,"dx":0.0017,"nx":28,"ny":28,"refTime":"2026-02-09T03:00:00:Z","depth":0,"parameterNumber":3,"parameterNumberName":"V-component_of_WINDS"},"data":[0,0,0,0,0,0,0,0,0,0,0,0,0,0,0,0,0,0,0,0,0,0,0,0,0,0,0,0,0,0,0,0,0,0,0,0,0,0,0,0,0,0,0,0,0,0,0,0,0,0,0,0,0,0,0,0,0,0,1.9097,1.9097,0,1.9117,1.9117,1.9117,1.9115,1.9114,1.9114,1.9114,1.9132,1.9132,1.9133,0,0,0,0,0,0,0,0,0,0,0,0,0,1.9055,1.9056,1.9097,1.9097,1.9097,1.9117,1.9117,1.9117,1.9115,1.9114,1.9114,1.9114,1.9131,1.9132,1.9133,0,0,0,0,0,0,0,0,0,0,0,0,0,1.9074,1.9056,1.9097,1.9098,1.9099,1.9116,1.9117,1.9117,1.9115,1.9114,1.9114,1.9113,1.9131,1.9132,1.9133,1.915,0,0,1.9137,1.9137,0,0,0,0,0,0,0,0,1.9073,1.9075,1.9098,1.9098,1.9099,1.9113,1.9109,1.9128,1.9115,1.9109,1.9114,1.9113,1.9125,1.9127,1.9132,1.9151,1.9151,1.9137,1.9138,1.9138,1.9138,0,0,0,0,0,0,0,1.9072,1.9075,1.9104,1.9098,1.9099,1.9098,1.91,1.9112,1.9119,1.9109,1.9109,1.9112,1.9126,1.9131,1.9132,1.9152,1.9137,1.9138,1.9139,1.9139,1.9187,1.9188,0,0,0,0,0,0,1.907,1.9073,1.9104,1.9105,1.9084,1.9099,1.9101,1.9109,1.9119,1.912,1.9112,1.9111,1.9129,1.9131,1.9133,1.9155,1.9138,1.9139,1.914,1.9187,1.9187,1.9188,0,0,0,0,0,0,1.9069,1.9073,1.9103,1.9089,1.9093,1.91,1.9108,1.9109,1.9114,1.9121,1.9122,1.9116,1.9129,1.9131,1.9146,1.9155,1.914,1.9141,1.9186,1.9187,1.9188,1.9197,0,0,0,0,0,0,1.9068,1.9072,1.9079,1.9089,1.9094,1.9116,1.9109,1.911,1.9117,1.9116,1.9125,1.9126,1.9128,1.9145,1.9147,1.9156,1.9142,1.9185,1.9186,1.9187,1.9196,1.9198,1.92,0,0,0,0,0,1.9067,1.908,1.9079,1.9083,1.9102,1.9117,1.9119,1.9122,1.9117,1.9124,1.9129,1.9126,1.9153,1.9146,1.9149,1.9159,1.9185,1.9186,1.9187,1.9195,1.9198,1.92,0,0,0,0,0,0,1.9068,1.9081,1.9081,1.9098,1.9107,1.9117,1.9125,1.9125,1.9134,1.9133,1.9135,1.9137,1.9153,1.9157,1.9149,1.9176,1.9168,1.917,1.9173,1.9176,1.9178,1.9177,1.9143,0,0,0,0,0,1.9071,1.9083,1.9093,1.9107,1.9111,1.9118,1.9124,1.9126,1.9134,1.9138,1.9144,1.9152,1.9162,1.9169,1.9179,1.9196,1.9199,1.9205,1.9207,1.9208,1.921,1.9222,1.9225,1.9192,1.9192,1.9192,0,0,1.9076,1.9084,1.9091,1.9107,1.9114,1.9127,1.912,1.9133,1.9142,1.9139,1.9155,1.9159,1.9168,1.9186,1.9193,1.9189,1.922,1.921,1.9211,1.9212,1.9224,1.9227,1.923,1.9193,1.9193,1.9193,0,0,1.9092,1.9099,1.9113,1.912,1.9132,1.9136,1.9139,1.915,1.9154,1.9169,1.9168,1.9179,1.9196,1.9204,1.921,1.9231,1.9229,1.9234,1.9245,1.9256,1.9259,1.9261,1.927,1.9273,1.9236,1.9236,1.9236,0,1.9096,1.9115,1.9119,1.9133,1.9141,1.914,1.9155,1.9161,1.9175,1.918,1.9176,1.92,1.9206,1.9226,1.9231,1.9235,1.924,1.9233,1.9258,1.926,1.9263,1.9272,1.9275,1.9236,1.9236,1.9236,1.9236,0,1.9121,1.9134,1.9144,1.9159,1.9168,1.9181,1.9188,1.9196,1.9197,1.9202,1.9219,1.9226,1.9239,1.9244,1.9244,1.9264,1.9262,1.9258,1.925,1.9266,1.9275,1.9278,1.9237,1.9237,1.9237,1.9237,0,0,1.9138,1.9157,1.9161,1.9169,1.9182,1.9192,1.9206,1.922,1.9228,1.9237,1.925,1.9266,1.9263,1.927,1.9271,1.9281,1.93,1.9276,1.9277,1.9282,1.9325,1.9329,1.9333,1.9299,1.93,1.93,1.9325,0,1.9156,1.9182,1.9187,1.921,1.9224,1.9225,1.9237,1.9247,1.9252,1.9264,1.9269,1.9281,1.9276,1.928,1.929,1.9296,1.9309,1.9294,1.9311,1.9312,1.9311,1.9337,1.9341,1.9364,1.9328,1.9328,1.9329,0,1.918,1.9193,1.9218,1.9233,1.9238,1.925,1.9264,1.9275,1.9286,1.929,1.9299,1.93,1.9315,1.9306,1.9327,1.9317,1.9324,1.9328,1.9329,1.9332,1.9322,1.9342,1.9371,1.9375,1.9334,1.9333,1.9333,0,1.9192,1.9215,1.9234,1.9241,1.9257,1.9266,1.9273,1.9284,1.9293,1.9305,1.9311,1.9324,1.9331,1.9341,1.9346,1.9339,1.9368,1.9359,1.9372,1.9372,1.9378,1.9378,1.9411,1.9381,1.9381,1.9381,1.938,0,1.9213,1.9228,1.924,1.9252,1.927,1.9275,1.9293,1.9299,1.931,1.9323,1.9323,1.9335,1.934,1.9353,1.9357,1.9375,1.9378,1.9381,1.9382,1.9382,1.9382,1.9388,1.9387,1.9381,1.9381,1.9381,1.9381,0,1.9229,1.9237,1.9258,1.9273,1.9277,1.929,1.9303,1.9314,1.932,1.9337,1.9341,1.935,1.9366,1.9371,1.9389,1.9392,1.9414,1.9412,1.9411,1.9411,1.9425,1.9424,1.9463,1.947,1.9434,1.9434,1.9434,0,1.9242,1.9255,1.9272,1.9282,1.929,1.9305,1.9315,1.9321,1.9331,1.9347,1.9357,1.9372,1.9386,1.941,1.9418,1.9433,1.9433,1.9446,1.9435,1.9435,1.9435,1.9435,1.9438,1.9448,1.9448,1.9449,1.9449,0,1.9265,1.9269,1.9284,1.9301,1.9314,1.9327,1.9339,1.9347,1.9355,1.9367,1.9384,1.9394,1.9415,1.9431,1.9446,1.9453,1.9453,1.9452,1.9456,1.9457,1.9456,1.9459,1.9418,1.9451,1.9451,1.9451,1.9451,1.9451,1.9281,1.9293,1.9309,1.9326,1.9337,1.9349,1.9362,1.9371,1.9385,1.9404,1.9406,1.9425,1.9438,1.9459,1.9466,1.9481,1.9478,1.9483,1.9485,1.9486,1.9489,1.9453,1.9483,1.9483,1.9483,1.9483,1.9483,0,1.9306,1.9316,1.9332,1.9352,1.9366,1.9366,1.9381,1.9392,1.9409,1.9422,1.9436,1.9456,1.9473,1.9483,1.9499,1.9509,1.951,1.9514,1.9514,1.9516,1.9489,1.9485,1.9513,1.9513,1.9513,1.9513,1.9513,1.9513,1.932,1.9342,1.9349,1.9376,1.9386,1.9406,1.9415,1.9427,1.9438,1.9461,1.9476,1.9483,1.9495,1.9513,1.9528,1.9531,1.9538,1.9542,1.9545,1.952,1.9517,1.9514,1.9511,1.9543,1.9543,1.957,1.957,1.957]}]]